W4HSV Weather Reports


time (UTC)temp
C
wind
direction
speed
KPH
gust
KPH
rain 1hr
cm
rain 24hr
cm
rain mn
cm
humidity
%
barometer
mb
20260506034021 22 183 9.7 19.3 0.00 0.00 0.00 67 1010.1
20260506033912 22 184 6.4 17.7 0.00 0.00 0.00 67 1010.1
20260506033820 22 189 6.4 17.7 0.00 0.00 0.00 67 1010.0
20260506033746 22 185 6.4 17.7 0.00 0.00 0.00 66 1010.0
20260506033613 22 207 9.7 17.7 0.00 0.00 0.00 67 1010.1
20260506033546 22 190 9.7 17.7 0.00 0.00 0.00 67 1010.1
20260506033323 22 186 11.3 17.7 0.00 0.00 0.00 66 1010.1
20260506033211 22 189 9.7 19.3 0.00 0.00 0.00 66 1010.0
20260506033119 22 197 11.3 19.3 0.00 0.00 0.00 66 1010.0
20260506033027 22 202 11.3 19.3 0.00 0.00 0.00 66 1010.0
20260506032915 22 157 9.7 19.3 0.00 0.00 0.00 66 1009.9
20260506032843 22 171 9.7 19.3 0.00 0.00 0.00 66 1009.9
20260506032713 22 162 11.3 19.3 0.00 0.00 0.00 66 1009.9
20260506032621 22 134 11.3 19.3 0.00 0.00 0.00 66 1009.9
20260506032529 22 183 11.3 19.3 0.00 0.00 0.00 66 1010.1
20260506032416 22 212 11.3 19.3 0.00 0.00 0.00 66 1010.1
20260506032323 22 202 11.3 19.3 0.00 0.00 0.00 66 1010.1
20260506032216 22 172 9.7 19.3 0.00 0.00 0.00 66 1010.2
20260506032121 22 184 9.7 19.3 0.00 0.00 0.00 66 1010.2
20260506032051 22 188 11.3 19.3 0.00 0.00 0.00 66 1010.1
20260506031844 22 182 11.3 19.3 0.00 0.00 0.00 66 1010.1
20260506031710 22 169 11.3 19.3 0.00 0.00 0.00 66 1010.1
20260506031618 22 195 12.9 19.3 0.00 0.00 0.00 66 1010.1
20260506031530 22 190 12.9 19.3 0.00 0.00 0.00 66 1010.1
20260506031416 22 190 9.7 22.5 0.00 0.00 0.00 66 1010.0
20260506031324 22 131 8.0 22.5 0.00 0.00 0.00 67 1010.0
20260506031212 22 215 9.7 22.5 0.00 0.00 0.00 67 1010.0
20260506031118 22 184 11.3 22.5 0.00 0.00 0.00 66 1010.0
20260506031011 22 169 11.3 17.7 0.00 0.00 0.00 66 1009.9
20260506030938 22 196 9.7 17.7 0.00 0.00 0.00 66 1010.0
20260506030824 22 167 11.3 17.7 0.00 0.00 0.00 66 1010.0
20260506030713 22 173 9.7 17.7 0.00 0.00 0.00 66 1010.0
20260506030641 22 192 9.7 17.7 0.00 0.00 0.00 66 1010.0
20260506030615 22 180 9.7 17.7 0.00 0.00 0.00 66 1009.9
20260506030349 22 170 9.7 17.7 0.00 0.00 0.00 66 1010.0
20260506030216 22 211 9.7 17.7 0.00 0.00 0.00 66 1010.1
20260506030122 22 204 11.3 17.7 0.00 0.00 0.00 66 1010.1
20260506030010 22 184 9.7 16.1 0.00 0.00 0.00 66 1010.1
20260506025917 22 179 9.7 16.1 0.00 0.00 0.00 66 1010.2
20260506025844 22 194 9.7 16.1 0.00 0.00 0.00 66 1010.2
20260506025714 22 171 11.3 16.1 0.00 0.00 0.00 66 1010.1
20260506025622 22 188 11.3 16.1 0.00 0.00 0.00 66 1010.1
20260506025530 22 175 9.7 16.1 0.00 0.00 0.00 66 1010.1
20260506025438 22 219 6.4 16.1 0.00 0.00 0.00 66 1010.1
20260506025346 22 182 9.7 16.1 0.00 0.00 0.00 66 1010.1
20260506025212 22 169 9.7 16.1 0.00 0.00 0.00 66 1010.1
20260506025125 22 190 11.3 16.1 0.00 0.00 0.00 66 1010.1
20260506025055 22 188 11.3 16.1 0.00 0.00 0.00 66 1010.0
20260506024829 22 187 11.3 16.1 0.00 0.00 0.00 66 1010.1
20260506024718 22 170 8.0 16.1 0.00 0.00 0.00 67 1010.0
20260506024610 22 151 6.4 16.1 0.00 0.00 0.00 66 1009.9
20260506024517 22 209 6.4 16.1 0.00 0.00 0.00 67 1009.9
20260506024424 22 188 4.8 16.1 0.00 0.00 0.00 66 1009.9
20260506024312 22 199 6.4 16.1 0.00 0.00 0.00 66 1009.7
20260506024240 22 130 6.4 16.1 0.00 0.00 0.00 66 1009.8
20260506024126 22 165 8.0 16.1 0.00 0.00 0.00 66 1009.8
20260506024014 22 232 9.7 17.7 0.00 0.00 0.00 66 1009.8
20260506023924 22 180 11.3 16.1 0.00 0.00 0.00 66 1009.8
20260506023812 22 178 9.7 16.1 0.00 0.00 0.00 66 1009.7
20260506023720 22 225 8.0 16.1 0.00 0.00 0.00 67 1009.7
20260506023627 22 139 6.4 16.1 0.00 0.00 0.00 66 1009.7
20260506023602 22 141 6.4 16.1 0.00 0.00 0.00 67 1009.7
20260506023315 22 189 6.4 16.1 0.00 0.00 0.00 67 1009.7
20260506023222 22 178 8.0 20.9 0.00 0.00 0.00 67 1009.7
20260506023130 22 146 9.7 20.9 0.00 0.00 0.00 66 1009.8
20260506023017 22 186 11.3 20.9 0.00 0.00 0.00 66 1009.9
20260506022925 22 169 11.3 20.9 0.00 0.00 0.00 67 1009.9
20260506022817 22 196 9.7 20.9 0.00 0.00 0.00 67 1009.9
20260506022725 22 163 9.7 20.9 0.00 0.00 0.00 67 1009.9
20260506022613 22 154 9.7 20.9 0.00 0.00 0.00 67 1009.9
20260506022521 22 179 12.9 20.9 0.00 0.00 0.00 67 1009.9
20260506022427 22 166 14.5 20.9 0.00 0.00 0.00 67 1010.0
20260506022319 22 201 12.9 20.9 0.00 0.00 0.00 67 1009.9
20260506022226 22 190 9.7 20.9 0.00 0.00 0.00 67 1009.9
20260506022134 22 173 11.3 20.9 0.00 0.00 0.00 67 1009.7
20260506022103 22 208 11.3 20.9 0.00 0.00 0.00 67 1009.8
20260506021817 22 191 11.3 20.9 0.00 0.00 0.00 67 1009.7
20260506021729 22 179 11.3 20.9 0.00 0.00 0.00 67 1009.7
20260506021616 22 202 12.9 20.9 0.00 0.00 0.00 67 1009.7
20260506021523 22 194 12.9 19.3 0.00 0.00 0.00 67 1009.7
20260506021429 22 187 11.3 16.1 0.00 0.00 0.00 67 1009.7
20260506021317 21 196 11.3 17.7 0.00 0.00 0.00 67 1009.7
20260506021225 22 178 9.7 16.1 0.00 0.00 0.00 67 1009.7
20260506021116 22 175 8.0 16.1 0.00 0.00 0.00 67 1009.7
20260506021025 22 187 8.0 16.1 0.00 0.00 0.00 67 1009.7
20260506020931 21 159 9.7 16.1 0.00 0.00 0.00 67 1009.6
20260506020817 21 187 11.3 16.1 0.00 0.00 0.00 67 1009.5
20260506020723 21 184 11.3 16.1 0.00 0.00 0.00 67 1009.5
20260506020615 21 168 8.0 16.1 0.00 0.00 0.00 67 1009.3
20260506020546 22 202 9.7 16.1 0.00 0.00 0.00 67 1009.3
20260506020318 22 213 9.7 16.1 0.00 0.00 0.00 67 1009.0
20260506020225 22 151 8.0 16.1 0.00 0.00 0.00 67 1009.0
20260506020111 22 165 9.7 16.1 0.00 0.00 0.00 67 1008.9
20260506020022 22 132 9.7 16.1 0.00 0.00 0.00 67 1008.9
20260506015929 22 132 9.7 16.1 0.00 0.00 0.00 67 1008.9
20260506015837 22 140 8.0 16.1 0.00 0.00 0.00 67 1009.0
20260506015724 22 178 9.7 16.1 0.00 0.00 0.00 67 1009.0
20260506015612 22 215 11.3 16.1 0.00 0.00 0.00 67 1009.2
20260506015520 22 163 9.7 16.1 0.00 0.00 0.00 66 1009.2
20260506015411 22 211 8.0 12.9 0.00 0.00 0.00 66 1009.4
20260506015319 22 160 8.0 20.9 0.00 0.00 0.00 66 1009.3
20260506015226 22 159 8.0 22.5 0.00 0.00 0.00 66 1009.3
20260506015134 22 151 8.0 22.5 0.00 0.00 0.00 66 1009.3
20260506015048 22 192 6.4 22.5 0.00 0.00 0.00 66 1009.3
20260506014822 22 142 8.0 22.5 0.00 0.00 0.00 66 1009.3
20260506014729 22 172 9.7 22.5 0.00 0.00 0.00 66 1009.4
20260506014617 22 148 12.9 22.5 0.00 0.00 0.00 66 1009.5
20260506014524 22 185 12.9 24.1 0.00 0.00 0.00 66 1009.5
20260506014412 22 179 11.3 17.7 0.00 0.00 0.00 66 1009.6
20260506014322 22 159 11.3 24.1 0.00 0.00 0.00 66 1009.6
20260506014229 22 156 9.7 24.1 0.00 0.00 0.00 66 1009.7
20260506014117 22 155 6.4 24.1 0.00 0.00 0.00 66 1009.8
20260506014026 22 198 8.0 24.1 0.00 0.00 0.00 66 1009.8
20260506013912 22 173 9.7 24.1 0.00 0.00 0.00 66 1009.8
20260506013825 22 157 11.3 24.1 0.00 0.00 0.00 66 1009.8
20260506013713 22 161 12.9 24.1 0.00 0.00 0.00 66 1009.8
20260506013619 22 171 9.7 24.1 0.00 0.00 0.00 66 1009.8
20260506013547 22 167 11.3 17.7 0.00 0.00 0.00 66 1009.8
20260506013321 22 227 8.0 16.1 0.00 0.00 0.00 66 1009.8
20260506013232 22 181 8.0 16.1 0.00 0.00 0.00 66 1009.8
20260506013139 22 159 9.7 16.1 0.00 0.00 0.00 66 1009.7
20260506013025 22 188 9.7 16.1 0.00 0.00 0.00 66 1009.7
20260506012912 22 213 8.0 16.1 0.00 0.00 0.00 66 1009.6
20260506012820 22 168 8.0 16.1 0.00 0.00 0.00 66 1009.6
20260506012748 22 148 9.7 16.1 0.00 0.00 0.00 66 1009.6
20260506012619 22 184 12.9 16.1 0.00 0.00 0.00 66 1009.7
20260506012546 22 205 9.7 16.1 0.00 0.00 0.00 66 1009.7
20260506012431 22 187 6.4 12.9 0.00 0.00 0.00 66 1009.7
20260506012318 22 192 4.8 12.9 0.00 0.00 0.00 66 1009.6
20260506012225 22 161 4.8 12.9 0.00 0.00 0.00 66 1009.6
20260506012132 22 207 4.8 12.9 0.00 0.00 0.00 66 1009.6
20260506012108 22 178 6.4 12.9 0.00 0.00 0.00 66 1009.6
20260506011820 22 171 8.0 12.9 0.00 0.00 0.00 66 1009.6
20260506011728 22 168 6.4 12.9 0.00 0.00 0.00 66 1009.6
20260506011615 22 190 8.0 19.3 0.00 0.00 0.00 66 1009.5
20260506011524 22 128 8.0 19.3 0.00 0.00 0.00 65 1009.5
20260506011415 22 160 8.0 19.3 0.00 0.00 0.00 66 1009.5
20260506011323 22 151 6.4 19.3 0.00 0.00 0.00 65 1009.5
20260506011230 22 206 6.4 19.3 0.00 0.00 0.00 65 1009.5
20260506011116 22 143 9.7 19.3 0.00 0.00 0.00 66 1009.4
20260506011045 22 175 11.3 19.3 0.00 0.00 0.00 65 1009.4
20260506010910 22 153 12.9 19.3 0.00 0.00 0.00 65 1009.5
20260506010821 22 118 11.3 17.7 0.00 0.00 0.00 65 1009.5
20260506010727 22 182 11.3 17.7 0.00 0.00 0.00 65 1009.4
20260506010634 22 164 9.7 17.7 0.00 0.00 0.00 65 1009.5
20260506010604 22 142 9.7 17.7 0.00 0.00 0.00 65 1009.5
20260506010317 22 132 9.7 22.5 0.00 0.00 0.00 65 1009.4
20260506010228 22 160 9.7 22.5 0.00 0.00 0.00 65 1009.4
20260506010115 22 144 9.7 22.5 0.00 0.00 0.00 65 1009.4
20260506010023 22 142 8.0 22.5 0.00 0.00 0.00 65 1009.4
20260506005912 22 146 8.0 22.5 0.00 0.00 0.00 65 1009.4
20260506005819 22 175 8.0 22.5 0.00 0.00 0.00 65 1009.4
20260506005711 22 152 11.3 22.5 0.00 0.00 0.00 64 1009.4
20260506005618 22 187 11.3 22.5 0.00 0.00 0.00 65 1009.5
20260506005526 22 165 9.7 20.9 0.00 0.00 0.00 65 1009.5
20260506005412 22 193 9.7 14.5 0.00 0.00 0.00 64 1009.5
20260506005319 22 185 9.7 16.1 0.00 0.00 0.00 64 1009.4
20260506005211 22 164 8.0 17.7 0.00 0.00 0.00 64 1009.4
20260506005118 22 196 9.7 17.7 0.00 0.00 0.00 64 1009.4
20260506005047 22 194 8.0 19.3 0.00 0.00 0.00 65 1009.4
20260506004841 22 196 8.0 19.3 0.00 0.00 0.00 64 1009.5
20260506004726 22 176 8.0 19.3 0.00 0.00 0.00 65 1009.5
20260506004633 22 198 9.7 19.3 0.00 0.00 0.00 64 1009.5
20260506004523 22 197 11.3 19.3 0.00 0.00 0.00 64 1009.5
20260506004412 22 155 11.3 19.3 0.00 0.00 0.00 64 1009.5
20260506004318 22 210 9.7 19.3 0.00 0.00 0.00 64 1009.5
20260506004225 22 184 11.3 19.3 0.00 0.00 0.00 64 1009.5
20260506004112 22 175 9.7 19.3 0.00 0.00 0.00 64 1009.6
20260506004023 22 189 8.0 16.1 0.00 0.00 0.00 64 1009.6
20260506003951 22 193 9.7 16.1 0.00 0.00 0.00 64 1009.6
20260506003816 22 169 11.3 16.1 0.00 0.00 0.00 64 1009.6
20260506003723 22 205 9.7 16.1 0.00 0.00 0.00 64 1009.6
20260506003610 22 182 8.0 17.7 0.00 0.00 0.00 64 1009.6
20260506003545 22 171 8.0 17.7 0.00 0.00 0.00 64 1009.6
20260506003317 22 182 6.4 17.7 0.00 0.00 0.00 64 1009.6
20260506003225 22 188 8.0 17.7 0.00 0.00 0.00 64 1009.6
20260506003112 22 186 8.0 17.7 0.00 0.00 0.00 63 1009.5
20260506003021 22 176 8.0 17.7 0.00 0.00 0.00 64 1009.5
20260506002948 22 150 8.0 17.7 0.00 0.00 0.00 63 1009.5
20260506002819 22 190 9.7 17.7 0.00 0.00 0.00 64 1009.5
20260506002727 22 198 9.7 22.5 0.00 0.00 0.00 63 1009.5
20260506002613 22 144 6.4 22.5 0.00 0.00 0.00 64 1009.3
20260506002541 22 130 6.4 22.5 0.00 0.00 0.00 63 1009.1
20260506002448 22 143 8.0 22.5 0.00 0.00 0.00 63 1009.1
20260506002314 22 139 9.7 22.5 0.00 0.00 0.00 63 1009.3
20260506002242 22 175 9.7 22.5 0.00 0.00 0.00 63 1009.3
20260506002133 22 151 11.3 22.5 0.00 0.00 0.00 63 1009.4
20260506002102 22 147 12.9 22.5 0.00 0.00 0.00 63 1009.5
20260506001815 22 194 12.9 19.3 0.00 0.00 0.00 63 1009.3
20260506001723 22 185 11.3 17.7 0.00 0.00 0.00 63 1009.3
20260506001615 22 158 9.7 17.7 0.00 0.00 0.00 63 1009.2
20260506001521 22 168 9.7 17.7 0.00 0.00 0.00 63 1009.2
20260506001429 22 169 9.7 20.9 0.00 0.00 0.00 63 1009.3
20260506001336 22 199 9.7 20.9 0.00 0.00 0.00 63 1009.2
20260506001223 22 118 8.0 20.9 0.00 0.00 0.00 63 1009.2
20260506001150 22 209 9.7 20.9 0.00 0.00 0.00 63 1009.3
20260506001015 22 184 11.3 20.9 0.00 0.00 0.00 63 1009.5
20260506000928 22 140 11.3 20.9 0.00 0.00 0.00 63 1009.5
20260506000815 22 175 11.3 20.9 0.00 0.00 0.00 63 1009.4
20260506000723 22 183 11.3 20.9 0.00 0.00 0.00 62 1009.4
20260506000651 22 199 11.3 20.9 0.00 0.00 0.00 62 1009.4
20260506000620 22 201 11.3 20.9 0.00 0.00 0.00 62 1009.3
20260506000336 22 160 12.9 20.9 0.00 0.00 0.00 62 1009.2
20260506000222 22 179 14.5 24.1 0.00 0.00 0.00 62 1009.2
20260506000129 22 155 14.5 25.7 0.00 0.00 0.00 62 1009.3
20260506000017 22 204 11.3 25.7 0.00 0.00 0.00 62 1009.4
20260505235924 22 151 8.0 25.7 0.00 0.00 0.00 63 1009.4
20260505235816 22 150 9.7 25.7 0.00 0.00 0.00 62 1009.3
20260505235724 22 191 9.7 25.7 0.00 0.00 0.00 62 1009.3
20260505235613 22 129 11.3 25.7 0.00 0.00 0.00 62 1009.3
20260505235520 22 151 14.5 25.7 0.00 0.00 0.00 62 1009.3
20260505235427 22 154 16.1 25.7 0.00 0.00 0.00 62 1009.4
20260505235313 22 152 14.5 25.7 0.00 0.00 0.00 62 1009.3
20260505235223 22 165 14.5 25.7 0.00 0.00 0.00 62 1009.3
20260505235131 22 130 12.9 22.5 0.00 0.00 0.00 62 1009.3
20260505235101 22 155 9.7 22.5 0.00 0.00 0.00 62 1009.4
20260505234815 22 151 11.3 22.5 0.00 0.00 0.00 62 1009.4
20260505234727 22 170 11.3 22.5 0.00 0.00 0.00 62 1009.4
20260505234614 22 139 9.7 22.5 0.00 0.00 0.00 62 1009.5
20260505234522 22 142 8.0 22.5 0.00 0.00 0.00 62 1009.5
20260505234429 22 115 8.0 25.7 0.00 0.00 0.00 62 1009.7
20260505234317 22 188 8.0 27.4 0.00 0.00 0.00 62 1009.6
20260505234224 22 194 9.7 27.4 0.00 0.00 0.00 62 1009.6
20260505234115 22 128 9.7 27.4 0.00 0.00 0.00 62 1009.7
20260505234022 22 207 9.7 27.4 0.00 0.00 0.00 62 1009.7
20260505233930 22 211 12.9 27.4 0.00 0.00 0.00 61 1009.6
20260505233838 22 184 16.1 27.4 0.00 0.00 0.00 61 1009.7
20260505233724 22 167 17.7 27.4 0.00 0.00 0.00 61 1009.7
20260505233616 22 207 19.3 27.4 0.00 0.00 0.00 61 1009.7
20260505233546 22 196 17.7 27.4 0.00 0.00 0.00 61 1009.7
20260505233320 22 182 14.5 27.4 0.00 0.00 0.00 61 1009.8
20260505233248 22 189 14.5 27.4 0.00 0.00 0.00 61 1009.8
20260505233134 22 213 12.9 27.4 0.00 0.00 0.00 61 1009.9
20260505233020 22 210 16.1 27.4 0.00 0.00 0.00 61 1009.8
20260505232911 22 151 19.3 27.4 0.00 0.00 0.00 61 1009.8
20260505232818 22 184 16.1 25.7 0.00 0.00 0.00 61 1009.8
20260505232725 22 217 14.5 27.4 0.00 0.00 0.00 61 1009.8
20260505232614 22 184 11.3 24.1 0.00 0.00 0.00 61 1009.9
20260505232519 22 197 12.9 24.1 0.00 0.00 0.00 61 1009.9
20260505232411 22 184 14.5 24.1 0.00 0.00 0.00 61 1010.0
20260505232317 22 187 14.5 25.7 0.00 0.00 0.00 61 1010.0
20260505232224 22 203 14.5 25.7 0.00 0.00 0.00 61 1010.0
20260505232112 22 86 14.5 25.7 0.00 0.00 0.00 61 1010.1
20260505232047 22 135 12.9 25.7 0.00 0.00 0.00 61 1010.1
20260505231821 22 166 12.9 25.7 0.00 0.00 0.00 61 1010.1
20260505231730 22 171 12.9 25.7 0.00 0.00 0.00 61 1010.2
20260505231616 22 178 14.5 25.7 0.00 0.00 0.00 60 1010.2
20260505231523 22 192 16.1 25.7 0.00 0.00 0.00 60 1010.2
20260505231410 22 190 14.5 24.1 0.00 0.00 0.00 60 1010.3
20260505231322 22 168 14.5 22.5 0.00 0.00 0.00 60 1010.3
20260505231211 22 157 14.5 25.7 0.00 0.00 0.00 60 1010.4
20260505231118 22 214 17.7 25.7 0.00 0.00 0.00 60 1010.4
20260505231045 23 192 17.7 29.0 0.00 0.00 0.00 60 1010.4
20260505230932 23 183 12.9 29.0 0.00 0.00 0.00 60 1010.4
20260505230818 23 198 12.9 29.0 0.00 0.00 0.00 60 1010.4
20260505230710 23 187 14.5 33.8 0.00 0.00 0.00 60 1010.3
20260505230618 23 170 16.1 33.8 0.00 0.00 0.00 60 1010.4
20260505230547 23 168 14.5 33.8 0.00 0.00 0.00 60 1010.4
20260505230320 23 167 14.5 33.8 0.00 0.00 0.00 60 1010.4
20260505230211 23 189 16.1 33.8 0.00 0.00 0.00 60 1010.3
20260505230119 23 163 16.1 33.8 0.00 0.00 0.00 60 1010.4
20260505230046 23 189 17.7 33.8 0.00 0.00 0.00 60 1010.4
20260505225911 23 169 17.7 33.8 0.00 0.00 0.00 60 1010.2
20260505225819 23 173 16.1 25.7 0.00 0.00 0.00 59 1010.3
20260505225724 23 179 16.1 25.7 0.00 0.00 0.00 59 1010.3
20260505225612 23 192 14.5 22.5 0.00 0.00 0.00 60 1010.2
20260505225523 23 178 14.5 25.7 0.00 0.00 0.00 60 1010.2
20260505225411 23 199 14.5 25.7 0.00 0.00 0.00 60 1010.3
20260505225319 23 207 14.5 25.7 0.00 0.00 0.00 60 1010.3
20260505225228 23 197 9.7 25.7 0.00 0.00 0.00 60 1010.3
20260505225135 23 128 9.7 25.7 0.00 0.00 0.00 60 1010.2
20260505225047 23 181 11.3 25.7 0.00 0.00 0.00 60 1010.2
20260505224820 23 170 16.1 25.7 0.00 0.00 0.00 60 1010.3
20260505224728 23 207 17.7 27.4 0.00 0.00 0.00 60 1010.3
20260505224636 23 176 12.9 25.7 0.00 0.00 0.00 60 1010.3
20260505224542 23 182 14.5 24.1 0.00 0.00 0.00 60 1010.3
20260505224410 23 175 14.5 25.7 0.00 0.00 0.00 60 1010.4
20260505224321 23 204 12.9 24.1 0.00 0.00 0.00 60 1010.4
20260505224249 23 169 12.9 24.1 0.00 0.00 0.00 60 1010.4
20260505224115 23 140 12.9 24.1 0.00 0.00 0.00 60 1010.3
20260505224022 22 192 12.9 24.1 0.00 0.00 0.00 60 1010.3
20260505223949 23 188 12.9 24.1 0.00 0.00 0.00 60 1010.4
20260505223815 22 195 11.3 24.1 0.00 0.00 0.00 60 1010.3
20260505223743 22 174 11.3 24.1 0.00 0.00 0.00 60 1010.3
20260505223613 22 173 12.9 27.4 0.00 0.00 0.00 60 1010.4
20260505223544 22 211 12.9 27.4 0.00 0.00 0.00 60 1010.4
20260505223337 22 209 12.9 27.4 0.00 0.00 0.00 60 1010.6
20260505223225 22 169 12.9 27.4 0.00 0.00 0.00 60 1010.6
20260505223117 23 202 12.9 27.4 0.00 0.00 0.00 60 1010.7
20260505223024 22 193 12.9 27.4 0.00 0.00 0.00 60 1010.7
20260505222911 23 179 14.5 27.4 0.00 0.00 0.00 60 1010.7
20260505222817 23 196 12.9 27.4 0.00 0.00 0.00 60 1010.6
20260505222725 23 166 11.3 25.7 0.00 0.00 0.00 60 1010.6
20260505222632 23 186 12.9 25.7 0.00 0.00 0.00 60 1010.7
20260505222523 23 185 12.9 25.7 0.00 0.00 0.00 60 1010.7
20260505222429 23 197 14.5 25.7 0.00 0.00 0.00 60 1010.7
20260505222337 23 196 12.9 25.7 0.00 0.00 0.00 60 1010.7
20260505222223 23 175 9.7 25.7 0.00 0.00 0.00 60 1010.7
20260505222110 23 185 12.9 25.7 0.00 0.00 0.00 59 1010.7
20260505222044 23 201 14.5 25.7 0.00 0.00 0.00 59 1010.7
20260505221818 23 170 12.9 25.7 0.00 0.00 0.00 60 1010.8
20260505221745 23 182 11.3 25.7 0.00 0.00 0.00 59 1010.8
20260505221611 23 194 9.7 25.7 0.00 0.00 0.00 59 1010.6
20260505221519 23 186 12.9 25.7 0.00 0.00 0.00 59 1010.6
20260505221427 23 186 16.1 25.7 0.00 0.00 0.00 59 1010.6
20260505221318 23 211 12.9 24.1 0.00 0.00 0.00 59 1010.6
20260505221225 23 169 9.7 25.7 0.00 0.00 0.00 59 1010.6
20260505221114 23 157 11.3 20.9 0.00 0.00 0.00 59 1010.6
20260505221041 23 202 12.9 20.9 0.00 0.00 0.00 59 1010.6
20260505220926 23 150 11.3 20.9 0.00 0.00 0.00 59 1010.6
20260505220814 23 196 9.7 20.9 0.00 0.00 0.00 60 1010.6
20260505220725 23 115 9.7 20.9 0.00 0.00 0.00 59 1010.6
20260505220612 23 150 12.9 20.9 0.00 0.00 0.00 59 1010.5
20260505220544 23 190 12.9 20.9 0.00 0.00 0.00 59 1010.5
20260505220318 23 207 11.3 20.9 0.00 0.00 0.00 59 1010.6
20260505220230 23 196 9.7 19.3 0.00 0.00 0.00 59 1010.6
20260505220117 23 186 11.3 19.3 0.00 0.00 0.00 59 1010.6
20260505220045 23 203 9.7 22.5 0.00 0.00 0.00 59 1010.6
20260505215910 23 148 8.0 22.5 0.00 0.00 0.00 59 1010.7
20260505215817 23 166 11.3 22.5 0.00 0.00 0.00 58 1010.7
20260505215725 23 188 12.9 22.5 0.00 0.00 0.00 58 1010.7
20260505215637 23 193 14.5 22.5 0.00 0.00 0.00 58 1010.7
20260505215522 23 192 14.5 22.5 0.00 0.00 0.00 58 1010.7
20260505215410 23 169 14.5 22.5 0.00 0.00 0.00 58 1010.8
20260505215338 23 196 14.5 22.5 0.00 0.00 0.00 58 1010.8
20260505215224 23 174 16.1 22.5 0.00 0.00 0.00 57 1010.8
20260505215111 23 198 14.5 24.1 0.00 0.00 0.00 58 1010.7
20260505215046 23 180 11.3 27.4 0.00 0.00 0.00 58 1010.7
20260505214820 23 223 11.3 27.4 0.00 0.00 0.00 58 1010.8
20260505214748 23 173 9.7 27.4 0.00 0.00 0.00 58 1010.7
20260505214614 23 192 8.0 27.4 0.00 0.00 0.00 57 1010.7
20260505214521 23 175 9.7 30.6 0.00 0.00 0.00 58 1010.7
20260505214432 23 169 14.5 30.6 0.00 0.00 0.00 57 1010.6
20260505214317 23 188 16.1 30.6 0.00 0.00 0.00 57 1010.7
20260505214224 23 180 17.7 30.6 0.00 0.00 0.00 57 1010.7
20260505214112 23 172 19.3 30.6 0.00 0.00 0.00 57 1010.5
20260505214020 23 173 17.7 30.6 0.00 0.00 0.00 57 1010.5
20260505213948 23 164 19.3 30.6 0.00 0.00 0.00 56 1010.5
20260505213817 23 169 17.7 30.6 0.00 0.00 0.00 56 1010.6
20260505213724 23 195 16.1 30.6 0.00 0.00 0.00 56 1010.6
20260505213652 23 182 14.5 29.0 0.00 0.00 0.00 57 1010.5
20260505213602 23 170 14.5 29.0 0.00 0.00 0.00 56 1010.6
20260505213315 23 175 14.5 35.4 0.00 0.00 0.00 56 1010.6
20260505213225 23 200 14.5 35.4 0.00 0.00 0.00 57 1010.6
20260505213113 23 211 16.1 35.4 0.00 0.00 0.00 56 1010.6
20260505213019 23 169 17.7 35.4 0.00 0.00 0.00 56 1010.6
20260505212925 23 190 19.3 35.4 0.00 0.00 0.00 56 1010.6
20260505212813 23 186 16.1 35.4 0.00 0.00 0.00 56 1010.7
20260505212721 23 205 17.7 35.4 0.00 0.00 0.00 56 1010.7
20260505212613 23 184 20.9 35.4 0.00 0.00 0.00 55 1010.7
20260505212521 23 201 20.9 35.4 0.00 0.00 0.00 55 1010.7
20260505212427 23 186 19.3 33.8 0.00 0.00 0.00 56 1010.8
20260505212315 23 196 19.3 30.6 0.00 0.00 0.00 55 1010.6
20260505212223 23 207 20.9 30.6 0.00 0.00 0.00 56 1010.6
20260505212114 23 171 19.3 33.8 0.00 0.00 0.00 56 1010.7
20260505212045 23 208 19.3 33.8 0.00 0.00 0.00 56 1010.7
20260505211840 23 205 14.5 33.8 0.00 0.00 0.00 56 1010.6
20260505211725 23 204 12.9 33.8 0.00 0.00 0.00 56 1010.6
20260505211612 23 167 14.5 33.8 0.00 0.00 0.00 56 1010.7
20260505211523 23 192 14.5 33.8 0.00 0.00 0.00 56 1010.7
20260505211411 23 194 20.9 33.8 0.00 0.00 0.00 55 1010.6
20260505211319 23 196 22.5 33.8 0.00 0.00 0.00 55 1010.6
20260505211226 23 183 20.9 32.2 0.00 0.00 0.00 56 1010.6
20260505211115 23 208 17.7 30.6 0.00 0.00 0.00 56 1010.6
20260505211027 23 183 16.1 30.6 0.00 0.00 0.00 56 1010.6
20260505210913 23 202 19.3 30.6 0.00 0.00 0.00 56 1010.6
20260505210820 23 202 19.3 30.6 0.00 0.00 0.00 56 1010.6
20260505210728 23 188 19.3 32.2 0.00 0.00 0.00 56 1010.6
20260505210616 23 182 16.1 32.2 0.00 0.00 0.00 57 1010.6
20260505210551 23 191 16.1 32.2 0.00 0.00 0.00 57 1010.6
20260505210326 23 159 14.5 32.2 0.00 0.00 0.00 56 1010.5
20260505210213 23 191 16.1 32.2 0.00 0.00 0.00 56 1010.5
20260505210120 23 197 17.7 32.2 0.00 0.00 0.00 55 1010.5
20260505210027 23 169 14.5 32.2 0.00 0.00 0.00 55 1010.6
20260505205919 23 174 12.9 27.4 0.00 0.00 0.00 57 1010.6
20260505205825 23 221 12.9 27.4 0.00 0.00 0.00 56 1010.6
20260505205713 23 195 12.9 27.4 0.00 0.00 0.00 56 1010.5
20260505205620 23 208 14.5 29.0 0.00 0.00 0.00 55 1010.5
20260505205527 23 183 17.7 29.0 0.00 0.00 0.00 55 1010.5
20260505205418 23 207 16.1 29.0 0.00 0.00 0.00 55 1010.5
20260505205346 23 173 14.5 29.0 0.00 0.00 0.00 55 1010.5
20260505205212 23 191 12.9 29.0 0.00 0.00 0.00 55 1010.4
20260505205119 23 185 14.5 29.0 0.00 0.00 0.00 55 1010.4
20260505205050 23 184 16.1 29.0 0.00 0.00 0.00 56 1010.4
20260505204829 22 192 16.1 29.0 0.00 0.00 0.00 56 1010.3
20260505204714 22 179 14.5 29.0 0.00 0.00 0.00 57 1010.2
20260505204623 22 173 16.1 29.0 0.00 0.00 0.00 57 1010.2
20260505204510 22 190 14.5 29.0 0.00 0.00 0.00 57 1010.2
20260505204416 22 176 12.9 29.0 0.00 0.00 0.00 57 1010.3
20260505204325 23 180 11.3 29.0 0.00 0.00 0.00 58 1010.3
20260505204218 23 182 11.3 29.0 0.00 0.00 0.00 57 1010.3
20260505204124 23 148 11.3 29.0 0.00 0.00 0.00 57 1010.3
20260505204012 23 121 9.7 29.0 0.00 0.00 0.00 57 1010.2
20260505203920 23 153 11.3 29.0 0.00 0.00 0.00 57 1010.2
20260505203827 23 134 16.1 29.0 0.00 0.00 0.00 57 1010.2
20260505203720 23 143 16.1 29.0 0.00 0.00 0.00 57 1010.3
20260505203627 23 132 14.5 29.0 0.00 0.00 0.00 59 1010.3
20260505203557 23 123 11.3 29.0 0.00 0.00 0.00 59 1010.2
20260505203311 23 189 14.5 29.0 0.00 0.00 0.00 57 1010.3
20260505203239 23 192 14.5 29.0 0.00 0.00 0.00 58 1010.3
20260505203129 23 195 16.1 29.0 0.00 0.00 0.00 57 1010.3
20260505203036 23 198 16.1 29.0 0.00 0.00 0.00 56 1010.4
20260505202921 23 197 12.9 29.0 0.00 0.00 0.00 56 1010.4
20260505202849 23 238 14.5 29.0 0.00 0.00 0.00 54 1010.3
20260505202735 23 145 14.5 29.0 0.00 0.00 0.00 53 1010.4
20260505202621 23 182 12.9 32.2 0.00 0.00 0.00 54 1010.4
20260505202528 23 154 14.5 32.2 0.00 0.00 0.00 53 1010.3
20260505202420 23 200 17.7 32.2 0.00 0.00 0.00 54 1010.4
20260505202347 23 142 17.7 32.2 0.00 0.00 0.00 53 1010.4
20260505202233 23 122 16.1 25.7 0.00 0.00 0.00 54 1010.4
20260505202140 23 155 16.1 24.1 0.00 0.00 0.00 54 1010.4
20260505202109 23 164 14.5 24.1 0.00 0.00 0.00 53 1010.3
20260505201823 23 209 12.9 24.1 0.00 0.00 0.00 53 1010.3
20260505201714 23 163 12.9 24.1 0.00 0.00 0.00 54 1010.5
20260505201642 23 190 11.3 24.1 0.00 0.00 0.00 53 1010.5
20260505201527 23 138 11.3 24.1 0.00 0.00 0.00 53 1010.5
20260505201434 23 179 12.9 24.1 0.00 0.00 0.00 53 1010.5
20260505201321 23 122 12.9 24.1 0.00 0.00 0.00 54 1010.5
20260505201248 23 145 14.5 24.1 0.00 0.00 0.00 53 1010.5
20260505201120 23 180 14.5 24.1 0.00 0.00 0.00 53 1010.5
20260505201028 23 158 14.5 24.1 0.00 0.00 0.00 54 1010.5
20260505200915 23 148 12.9 19.3 0.00 0.00 0.00 54 1010.5
20260505200822 23 162 11.3 22.5 0.00 0.00 0.00 54 1010.5
20260505200728 23 158 11.3 22.5 0.00 0.00 0.00 54 1010.5
20260505200636 23 176 11.3 22.5 0.00 0.00 0.00 54 1010.5
20260505200549 23 170 11.3 22.5 0.00 0.00 0.00 54 1010.8
20260505200323 23 136 9.7 22.5 0.00 0.00 0.00 55 1010.5
20260505200211 22 182 9.7 22.5 0.00 0.00 0.00 55 1010.5
20260505200117 22 150 9.7 22.5 0.00 0.00 0.00 54 1010.5
20260505200044 22 202 11.3 22.5 0.00 0.00 0.00 54 1010.5
20260505195915 22 153 11.3 22.5 0.00 0.00 0.00 55 1010.6
20260505195822 22 146 9.7 16.1 0.00 0.00 0.00 54 1010.6
20260505195729 22 171 11.3 22.5 0.00 0.00 0.00 54 1010.8
20260505195617 22 147 11.3 22.5 0.00 0.00 0.00 54 1010.8
20260505195544 23 168 12.9 22.5 0.00 0.00 0.00 54 1010.8
20260505195410 22 146 9.7 22.5 0.00 0.00 0.00 54 1010.8
20260505195339 23 169 9.7 22.5 0.00 0.00 0.00 54 1010.7
20260505195228 23 76 12.9 22.5 0.00 0.00 0.00 54 1010.7
20260505195116 23 161 14.5 22.5 0.00 0.00 0.00 53 1010.7
20260505195046 23 171 12.9 22.5 0.00 0.00 0.00 53 1010.7
20260505194819 23 185 9.7 16.1 0.00 0.00 0.00 53 1010.7
20260505194710 23 113 12.9 16.1 0.00 0.00 0.00 54 1010.7
20260505194637 23 156 11.3 16.1 0.00 0.00 0.00 53 1010.7
20260505194543 23 166 9.7 19.3 0.00 0.00 0.00 54 1010.7
20260505194429 23 146 9.7 22.5 0.00 0.00 0.00 53 1010.6
20260505194318 23 170 9.7 22.5 0.00 0.00 0.00 53 1010.7
20260505194226 23 159 9.7 22.5 0.00 0.00 0.00 53 1010.7
20260505194132 23 157 9.7 22.5 0.00 0.00 0.00 53 1010.6
20260505194023 23 148 9.7 24.1 0.00 0.00 0.00 53 1010.6
20260505193911 23 140 9.7 24.1 0.00 0.00 0.00 53 1010.5
20260505193839 23 156 9.7 24.1 0.00 0.00 0.00 53 1010.5
20260505193724 23 192 12.9 24.1 0.00 0.00 0.00 52 1010.5
20260505193612 23 180 11.3 24.1 0.00 0.00 0.00 53 1010.5
20260505193547 23 141 11.3 24.1 0.00 0.00 0.00 52 1010.5
20260505193320 23 161 14.5 24.1 0.00 0.00 0.00 52 1010.6
20260505193228 23 163 16.1 24.1 0.00 0.00 0.00 52 1010.6
20260505193115 23 132 12.9 22.5 0.00 0.00 0.00 53 1010.7
20260505193022 23 198 12.9 22.5 0.00 0.00 0.00 53 1010.7
20260505192915 23 159 11.3 22.5 0.00 0.00 0.00 54 1010.8
20260505192822 23 162 9.7 22.5 0.00 0.00 0.00 53 1010.8
20260505192729 23 190 8.0 22.5 0.00 0.00 0.00 53 1010.8
20260505192617 23 90 9.7 22.5 0.00 0.00 0.00 52 1010.8
20260505192524 23 194 11.3 22.5 0.00 0.00 0.00 52 1010.8
20260505192416 23 163 11.3 24.1 0.00 0.00 0.00 51 1010.8
20260505192323 23 158 9.7 25.7 0.00 0.00 0.00 53 1010.8
20260505192231 23 131 9.7 25.7 0.00 0.00 0.00 51 1010.7
20260505192137 23 158 11.3 25.7 0.00 0.00 0.00 51 1010.7
20260505192046 23 184 9.7 25.7 0.00 0.00 0.00 51 1010.7
20260505191821 23 144 8.0 25.7 0.00 0.00 0.00 49 1011.0
20260505191713 23 153 12.9 25.7 0.00 0.00 0.00 48 1011.3
20260505191620 23 158 16.1 25.7 0.00 0.00 0.00 48 1011.3
20260505191529 23 196 17.7 25.7 0.00 0.00 0.00 48 1011.3
20260505191417 23 199 12.9 25.7 0.00 0.00 0.00 47 1011.6
20260505191325 23 180 9.7 20.9 0.00 0.00 0.00 48 1011.6
20260505191216 23 195 12.9 20.9 0.00 0.00 0.00 48 1011.8
20260505191123 23 182 12.9 20.9 0.00 0.00 0.00 47 1011.8
20260505191010 23 188 14.5 20.9 0.00 0.00 0.00 47 1011.9
20260505190919 23 165 12.9 20.9 0.00 0.00 0.00 47 1012.0
20260505190825 23 197 11.3 24.1 0.00 0.00 0.00 47 1012.0
20260505190718 23 217 12.9 24.1 0.00 0.00 0.00 46 1012.1
20260505190645 23 180 12.9 24.1 0.00 0.00 0.00 46 1012.1
20260505190615 24 175 12.9 24.1 0.00 0.00 0.00 47 1012.1
20260505190328 24 186 6.4 24.1 0.00 0.00 0.00 47 1012.2
20260505190213 24 144 8.0 24.1 0.00 0.00 0.00 46 1012.4
20260505190125 24 184 12.9 27.4 0.00 0.00 0.00 46 1012.4
20260505190013 24 193 14.5 27.4 0.00 0.00 0.00 46 1012.4
20260505185921 24 191 12.9 27.4 0.00 0.00 0.00 47 1012.4
20260505185829 24 219 11.3 27.4 0.00 0.00 0.00 47 1012.4
20260505185715 24 260 8.0 27.4 0.00 0.00 0.00 46 1012.4
20260505185624 24 188 9.7 27.4 0.00 0.00 0.00 47 1012.4
20260505185514 24 144 12.9 27.4 0.00 0.00 0.00 45 1012.4
20260505185422 24 207 14.5 27.4 0.00 0.00 0.00 45 1012.4
20260505185329 24 192 14.5 32.2 0.00 0.00 0.00 46 1012.5
20260505185216 24 187 11.3 32.2 0.00 0.00 0.00 46 1012.5
20260505185123 24 203 11.3 32.2 0.00 0.00 0.00 46 1012.5
20260505185058 24 186 11.3 32.2 0.00 0.00 0.00 46 1012.5
20260505184811 24 247 9.7 32.2 0.00 0.00 0.00 46 1012.5
20260505184719 24 190 12.9 32.2 0.00 0.00 0.00 44 1012.5
20260505184626 24 221 16.1 32.2 0.00 0.00 0.00 44 1012.5
20260505184518 25 201 19.3 32.2 0.00 0.00 0.00 44 1012.5
20260505184426 25 229 17.7 32.2 0.00 0.00 0.00 44 1012.5
20260505184315 25 184 12.9 22.5 0.00 0.00 0.00 44 1012.5
20260505184223 25 196 11.3 27.4 0.00 0.00 0.00 43 1012.5
20260505184110 25 227 11.3 27.4 0.00 0.00 0.00 43 1012.5
20260505184017 25 179 14.5 27.4 0.00 0.00 0.00 42 1012.5
20260505183928 25 162 16.1 27.4 0.00 0.00 0.00 43 1012.5
20260505183835 25 196 12.9 27.4 0.00 0.00 0.00 43 1012.6
20260505183721 25 167 11.3 27.4 0.00 0.00 0.00 45 1012.6
20260505183610 25 180 16.1 27.4 0.00 0.00 0.00 43 1012.6
20260505183544 25 182 16.1 27.4 0.00 0.00 0.00 43 1012.6
20260505183319 25 180 16.1 27.4 0.00 0.00 0.00 42 1012.5
20260505183226 25 197 14.5 25.7 0.00 0.00 0.00 43 1012.5
20260505183114 25 180 16.1 25.7 0.00 0.00 0.00 44 1012.5
20260505183021 25 200 16.1 25.7 0.00 0.00 0.00 44 1012.5
20260505182930 25 241 16.1 29.0 0.00 0.00 0.00 45 1012.4
20260505182821 25 184 16.1 25.7 0.00 0.00 0.00 44 1012.5
20260505182728 25 169 14.5 24.1 0.00 0.00 0.00 44 1012.5
20260505182616 25 215 12.9 33.8 0.00 0.00 0.00 44 1012.4
20260505182523 25 225 9.7 33.8 0.00 0.00 0.00 45 1012.4
20260505182410 25 216 9.7 35.4 0.00 0.00 0.00 45 1012.6
20260505182321 25 195 12.9 35.4 0.00 0.00 0.00 45 1012.6
20260505182229 25 214 14.5 35.4 0.00 0.00 0.00 44 1012.5
20260505182136 25 199 17.7 35.4 0.00 0.00 0.00 44 1012.6
20260505182106 25 198 17.7 35.4 0.00 0.00 0.00 43 1012.6
20260505181818 25 186 17.7 35.4 0.00 0.00 0.00 42 1012.7
20260505181710 25 200 17.7 35.4 0.00 0.00 0.00 41 1012.7
20260505181616 25 150 19.3 35.4 0.00 0.00 0.00 43 1012.7
20260505181524 25 161 16.1 35.4 0.00 0.00 0.00 42 1012.7
20260505181412 25 184 11.3 30.6 0.00 0.00 0.00 43 1012.6
20260505181318 25 110 9.7 30.6 0.00 0.00 0.00 41 1012.7
20260505181246 25 163 12.9 30.6 0.00 0.00 0.00 41 1012.7
20260505181136 25 190 17.7 30.6 0.00 0.00 0.00 42 1012.8
20260505181022 25 184 22.5 30.6 0.00 0.00 0.00 41 1012.8
20260505180910 25 184 17.7 30.6 0.00 0.00 0.00 41 1012.8
20260505180816 25 199 14.5 30.6 0.00 0.00 0.00 43 1012.8
20260505180745 25 209 16.1 30.6 0.00 0.00 0.00 42 1012.8
20260505180631 25 201 17.7 30.6 0.00 0.00 0.00 43 1012.8
20260505180544 25 187 16.1 32.2 0.00 0.00 0.00 43 1012.8
20260505180318 25 187 16.1 25.7 0.00 0.00 0.00 42 1012.8
20260505180247 25 217 16.1 25.7 0.00 0.00 0.00 43 1012.8
20260505180114 25 201 14.5 29.0 0.00 0.00 0.00 43 1012.8
20260505180020 25 223 11.3 29.0 0.00 0.00 0.00 43 1012.8
20260505175912 25 186 12.9 29.0 0.00 0.00 0.00 43 1012.7
20260505175821 25 202 12.9 29.0 0.00 0.00 0.00 44 1012.7
20260505175729 25 213 16.1 29.0 0.00 0.00 0.00 44 1012.7
20260505175615 24 264 14.5 29.0 0.00 0.00 0.00 43 1012.5
20260505175523 24 221 12.9 29.0 0.00 0.00 0.00 45 1012.5
20260505175430 24 200 14.5 29.0 0.00 0.00 0.00 44 1012.6
20260505175321 24 182 17.7 29.0 0.00 0.00 0.00 42 1012.6
20260505175228 24 209 16.1 29.0 0.00 0.00 0.00 43 1012.7
20260505175116 24 173 16.1 29.0 0.00 0.00 0.00 45 1012.5
20260505175046 24 132 17.7 29.0 0.00 0.00 0.00 44 1012.5
20260505174824 24 188 17.7 29.0 0.00 0.00 0.00 44 1012.6
20260505174710 24 157 16.1 30.6 0.00 0.00 0.00 45 1012.6
20260505174618 24 219 16.1 30.6 0.00 0.00 0.00 43 1012.6
20260505174545 24 223 14.5 30.6 0.00 0.00 0.00 44 1012.6
20260505174412 24 258 11.3 30.6 0.00 0.00 0.00 46 1012.5
20260505174319 24 200 9.7 30.6 0.00 0.00 0.00 46 1012.6
20260505174230 24 214 8.0 30.6 0.00 0.00 0.00 46 1012.6
20260505174117 24 238 9.7 30.6 0.00 0.00 0.00 48 1012.7
20260505174026 24 181 12.9 30.6 0.00 0.00 0.00 47 1012.7
20260505173912 24 211 16.1 32.2 0.00 0.00 0.00 46 1012.7
20260505173820 24 180 16.1 32.2 0.00 0.00 0.00 47 1012.7
20260505173746 24 194 17.7 32.2 0.00 0.00 0.00 46 1012.7
20260505173637 24 177 14.5 32.2 0.00 0.00 0.00 49 1012.7
20260505173607 24 145 12.9 19.3 0.00 0.00 0.00 46 1012.7
20260505173320 24 240 12.9 19.3 0.00 0.00 0.00 46 1012.7
20260505173228 24 214 14.5 22.5 0.00 0.00 0.00 46 1012.8
20260505173115 24 186 14.5 25.7 0.00 0.00 0.00 46 1012.8
20260505173026 24 197 12.9 25.7 0.00 0.00 0.00 46 1012.8
20260505172913 24 187 11.3 25.7 0.00 0.00 0.00 45 1012.8
20260505172822 24 205 12.9 25.7 0.00 0.00 0.00 46 1012.8
20260505172749 24 267 12.9 25.7 0.00 0.00 0.00 46 1012.8
20260505172615 24 267 11.3 25.7 0.00 0.00 0.00 45 1012.8
20260505172523 24 165 14.5 32.2 0.00 0.00 0.00 45 1012.8
20260505172434 24 175 17.7 32.2 0.00 0.00 0.00 44 1012.8
20260505172321 24 211 17.7 32.2 0.00 0.00 0.00 45 1012.8
20260505172227 24 206 14.5 32.2 0.00 0.00 0.00 45 1012.9
20260505172115 24 247 12.9 32.2 0.00 0.00 0.00 44 1012.8
20260505172051 24 211 12.9 32.2 0.00 0.00 0.00 43 1012.8
20260505171844 24 246 14.5 32.2 0.00 0.00 0.00 43 1012.9
20260505171710 24 199 14.5 32.2 0.00 0.00 0.00 44 1013.0
20260505171617 24 186 14.5 22.5 0.00 0.00 0.00 44 1013.0
20260505171526 24 206 16.1 22.5 0.00 0.00 0.00 44 1013.0
20260505171413 25 276 12.9 24.1 0.00 0.00 0.00 46 1013.0
20260505171325 25 228 9.7 22.5 0.00 0.00 0.00 46 1013.0
20260505171232 25 204 12.9 22.5 0.00 0.00 0.00 46 1013.0
20260505171120 25 329 12.9 22.5 0.00 0.00 0.00 48 1013.0
20260505171028 25 184 9.7 22.5 0.00 0.00 0.00 50 1013.1
20260505170915 24 142 11.3 22.5 0.00 0.00 0.00 48 1013.0
20260505170843 24 196 14.5 22.5 0.00 0.00 0.00 48 1013.0
20260505170714 24 249 17.7 27.4 0.00 0.00 0.00 50 1013.1
20260505170621 24 179 14.5 25.7 0.00 0.00 0.00 48 1013.1
20260505170551 24 121 11.3 25.7 0.00 0.00 0.00 48 1013.0
20260505170324 24 195 9.7 22.5 0.00 0.00 0.00 48 1013.2
20260505170210 24 151 11.3 22.5 0.00 0.00 0.00 51 1013.3
20260505170122 24 197 11.3 22.5 0.00 0.00 0.00 49 1013.3
20260505170029 24 208 9.7 22.5 0.00 0.00 0.00 49 1013.3
20260505165936 24 113 12.9 22.5 0.00 0.00 0.00 48 1013.3
20260505165821 24 188 14.5 22.5 0.00 0.00 0.00 48 1013.3
20260505165747 24 214 14.5 27.4 0.00 0.00 0.00 50 1013.3
20260505165614 24 175 12.9 27.4 0.00 0.00 0.00 49 1013.2
20260505165541 24 152 11.3 27.4 0.00 0.00 0.00 49 1013.2
20260505165412 24 163 12.9 27.4 0.00 0.00 0.00 50 1013.2
20260505165318 24 155 12.9 27.4 0.00 0.00 0.00 49 1013.2
20260505165225 24 132 14.5 27.4 0.00 0.00 0.00 49 1013.2
20260505165112 24 165 12.9 27.4 0.00 0.00 0.00 50 1013.2
20260505165049 24 149 12.9 27.4 0.00 0.00 0.00 50 1013.2
20260505164823 23 142 12.9 27.4 0.00 0.00 0.00 50 1013.4
20260505164729 23 172 12.9 22.5 0.00 0.00 0.00 50 1013.4
20260505164617 23 188 16.1 22.5 0.00 0.00 0.00 50 1013.4
20260505164523 23 215 16.1 22.5 0.00 0.00 0.00 50 1013.4
20260505164410 23 189 14.5 22.5 0.00 0.00 0.00 51 1013.5
20260505164321 23 190 12.9 22.5 0.00 0.00 0.00 50 1013.5
20260505164229 23 188 11.3 22.5 0.00 0.00 0.00 51 1013.4
20260505164116 23 140 12.9 22.5 0.00 0.00 0.00 51 1013.3
20260505164025 23 173 14.5 20.9 0.00 0.00 0.00 51 1013.3
20260505163912 23 158 12.9 27.4 0.00 0.00 0.00 52 1013.3
20260505163823 23 157 12.9 27.4 0.00 0.00 0.00 54 1013.3
20260505163711 23 194 11.3 27.4 0.00 0.00 0.00 56 1013.2
20260505163618 23 161 11.3 27.4 0.00 0.00 0.00 57 1013.2
20260505163548 23 153 12.9 27.4 0.00 0.00 0.00 54 1013.2
20260505163322 23 200 12.9 27.4 0.00 0.00 0.00 54 1013.4
20260505163213 23 223 12.9 27.4 0.00 0.00 0.00 54 1013.3
20260505163121 23 196 16.1 27.4 0.00 0.00 0.00 55 1013.3
20260505163048 23 171 14.5 25.7 0.00 0.00 0.00 54 1013.3
20260505162915 23 188 9.7 22.5 0.00 0.00 0.00 55 1013.4
20260505162822 23 232 9.7 20.9 0.00 0.00 0.00 54 1013.4
20260505162715 23 187 9.7 20.9 0.00 0.00 0.00 55 1013.5
20260505162624 23 217 8.0 20.9 0.00 0.00 0.00 56 1013.5
20260505162511 23 182 11.3 20.9 0.00 0.00 0.00 55 1013.4
20260505162420 23 199 12.9 20.9 0.00 0.00 0.00 56 1013.4
20260505162328 23 213 12.9 20.9 0.00 0.00 0.00 54 1013.4
20260505162235 23 159 12.9 22.5 0.00 0.00 0.00 55 1013.3
20260505162126 23 234 12.9 22.5 0.00 0.00 0.00 54 1013.3
20260505162056 23 209 12.9 25.7 0.00 0.00 0.00 55 1013.4
20260505161851 23 163 11.3 25.7 0.00 0.00 0.00 55 1013.4
20260505161716 23 234 12.9 25.7 0.00 0.00 0.00 56 1013.5
20260505161624 23 194 12.9 25.7 0.00 0.00 0.00 55 1013.5
20260505161515 23 223 11.3 25.7 0.00 0.00 0.00 54 1013.4
20260505161443 23 203 14.5 25.7 0.00 0.00 0.00 54 1013.4
20260505161310 23 174 14.5 25.7 0.00 0.00 0.00 54 1013.4
20260505161217 23 200 11.3 25.7 0.00 0.00 0.00 56 1013.4
20260505161124 23 204 9.7 22.5 0.00 0.00 0.00 56 1013.4
20260505161031 23 200 12.9 25.7 0.00 0.00 0.00 55 1013.2
20260505160923 23 205 12.9 25.7 0.00 0.00 0.00 55 1013.2
20260505160810 23 198 12.9 25.7 0.00 0.00 0.00 55 1013.3
20260505160737 23 225 12.9 25.7 0.00 0.00 0.00 55 1013.2
20260505160623 23 206 11.3 25.7 0.00 0.00 0.00 55 1013.2
20260505160551 23 251 11.3 25.7 0.00 0.00 0.00 55 1013.2
20260505160345 23 221 14.5 25.7 0.00 0.00 0.00 54 1013.2
20260505160235 23 197 14.5 25.7 0.00 0.00 0.00 54 1013.3
20260505160122 23 180 12.9 27.4 0.00 0.00 0.00 54 1013.3
20260505153321 22 184 11.3 20.9 0.00 0.00 0.00 56 1013.4
20260505153211 22 171 9.7 19.3 0.00 0.00 0.00 55 1013.3
20260505153119 22 186 9.7 19.3 0.00 0.00 0.00 55 1013.2
20260505153025 22 198 11.3 19.3 0.00 0.00 0.00 55 1013.2
20260505152914 22 259 11.3 19.3 0.00 0.00 0.00 55 1013.2
20260505152822 22 195 9.7 17.7 0.00 0.00 0.00 55 1013.2
20260505152712 22 287 8.0 17.7 0.00 0.00 0.00 60 1013.2
20260505152620 22 204 8.0 17.7 0.00 0.00 0.00 59 1013.2
20260505152527 22 175 8.0 17.7 0.00 0.00 0.00 58 1013.2
20260505152414 22 196 9.7 17.7 0.00 0.00 0.00 58 1013.2
20260505152323 22 175 9.7 17.7 0.00 0.00 0.00 57 1013.2
20260505152230 22 188 9.7 17.7 0.00 0.00 0.00 56 1013.2
20260505152157 22 189 11.3 17.7 0.00 0.00 0.00 56 1013.3
20260505152111 22 184 11.3 19.3 0.00 0.00 0.00 59 1013.1
20260505151823 22 191 11.3 17.7 0.00 0.00 0.00 58 1013.2
20260505151712 22 167 9.7 16.1 0.00 0.00 0.00 58 1013.2
20260505151638 22 182 9.7 16.1 0.00 0.00 0.00 59 1013.3
20260505151524 22 183 8.0 19.3 0.00 0.00 0.00 59 1013.3
20260505151415 22 238 8.0 19.3 0.00 0.00 0.00 60 1013.3
20260505151323 22 178 9.7 19.3 0.00 0.00 0.00 60 1013.3
20260505151250 22 199 9.7 17.7 0.00 0.00 0.00 61 1013.3
20260505151117 21 178 9.7 17.7 0.00 0.00 0.00 60 1013.3
20260505151023 21 192 8.0 17.7 0.00 0.00 0.00 62 1013.3
20260505150931 21 208 9.7 17.7 0.00 0.00 0.00 62 1013.2
20260505150820 21 112 12.9 17.7 0.00 0.00 0.00 62 1013.2
20260505150748 21 138 12.9 17.7 0.00 0.00 0.00 62 1013.2
20260505150614 21 123 12.9 19.3 0.00 0.00 0.00 62 1013.2
20260505150544 21 117 11.3 17.7 0.00 0.00 0.00 63 1013.2
20260505150315 21 221 6.4 17.7 0.00 0.00 0.00 65 1013.4
20260505150248 21 155 6.4 17.7 0.00 0.00 0.00 64 1013.4
20260505150134 21 178 6.4 17.7 0.00 0.00 0.00 63 1013.5
20260505140625 18 214 9.7 19.3 0.00 0.00 0.00 71 1013.4
20260505140601 18 180 9.7 19.3 0.00 0.00 0.00 70 1013.5
20260505140335 18 156 12.9 19.3 0.00 0.00 0.00 70 1013.5
20260505140221 18 177 12.9 19.3 0.00 0.00 0.00 70 1013.5
20260505140128 18 213 11.3 20.9 0.00 0.00 0.00 70 1013.5
20260505130223 17 138 9.7 16.1 0.00 0.00 0.00 72 1013.5
20260505130111 17 202 8.0 17.7 0.00 0.00 0.00 73 1013.4
20260505124816 17 189 9.7 14.5 0.00 0.00 0.00 72 1013.1
20260505124744 17 188 9.7 14.5 0.00 0.00 0.00 73 1013.1
20260505124610 17 178 9.7 14.5 0.00 0.00 0.00 72 1013.0
20260505124515 17 173 8.0 16.1 0.00 0.00 0.00 73 1013.0
20260505124441 17 167 8.0 12.9 0.00 0.00 0.00 73 1013.0
20260505124327 17 174 6.4 12.9 0.00 0.00 0.00 72 1013.1
20260505124214 17 143 6.4 12.9 0.00 0.00 0.00 73 1013.1
20260505124127 17 146 6.4 12.9 0.00 0.00 0.00 73 1013.1
20260505124013 17 134 4.8 12.9 0.00 0.00 0.00 73 1013.1
20260505123919 17 169 4.8 12.9 0.00 0.00 0.00 73 1013.1
20260505123827 16 156 6.4 12.9 0.00 0.00 0.00 73 1013.1
20260505123715 16 152 6.4 12.9 0.00 0.00 0.00 73 1013.1
20260505123623 16 138 4.8 12.9 0.00 0.00 0.00 73 1013.1
20260505123558 16 173 4.8 11.3 0.00 0.00 0.00 74 1013.2
20260505123311 16 200 6.4 11.3 0.00 0.00 0.00 74 1013.1
20260505123238 16 191 6.4 11.3 0.00 0.00 0.00 74 1013.1
20260505123125 16 182 8.0 14.5 0.00 0.00 0.00 74 1013.1
20260505123017 16 155 8.0 14.5 0.00 0.00 0.00 75 1013.1
20260505122925 16 117 6.4 14.5 0.00 0.00 0.00 74 1013.1
20260505122811 16 168 3.2 14.5 0.00 0.00 0.00 75 1013.0
20260505122739 16 190 4.8 14.5 0.00 0.00 0.00 75 1013.1
20260505122624 16 144 4.8 14.5 0.00 0.00 0.00 75 1013.1
20260505122510 16 175 6.4 14.5 0.00 0.00 0.00 76 1013.1
20260505122420 16 149 8.0 14.5 0.00 0.00 0.00 75 1013.1
20260505122328 16 134 6.4 14.5 0.00 0.00 0.00 75 1013.1
20260505122235 16 149 4.8 11.3 0.00 0.00 0.00 75 1013.1
20260505122122 16 157 4.8 11.3 0.00 0.00 0.00 75 1013.1
20260505122053 16 147 4.8 11.3 0.00 0.00 0.00 76 1013.1
20260505121810 15 148 4.8 11.3 0.00 0.00 0.00 76 1013.0
20260505121717 15 190 4.8 11.3 0.00 0.00 0.00 76 1013.1
20260505121625 15 150 6.4 11.3 0.00 0.00 0.00 76 1013.1
20260505121512 15 186 6.4 9.7 0.00 0.00 0.00 77 1013.1
20260505121439 15 153 6.4 9.7 0.00 0.00 0.00 77 1013.1
20260505121325 15 159 4.8 9.7 0.00 0.00 0.00 77 1013.1
20260505121217 15 156 4.8 9.7 0.00 0.00 0.00 77 1013.1
20260505121124 15 163 4.8 9.7 0.00 0.00 0.00 77 1013.1
20260505121011 15 192 4.8 6.4 0.00 0.00 0.00 78 1013.0
20260505120919 15 170 4.8 8.0 0.00 0.00 0.00 78 1012.9
20260505120825 15 157 4.8 8.0 0.00 0.00 0.00 78 1012.9
20260505120718 15 142 3.2 8.0 0.00 0.00 0.00 78 1013.0
20260505120646 15 117 1.6 8.0 0.00 0.00 0.00 78 1013.0
20260505120616 15 156 3.2 8.0 0.00 0.00 0.00 77 1013.0
20260505120310 15 189 4.8 8.0 0.00 0.00 0.00 77 1013.1
20260505120218 15 182 4.8 8.0 0.00 0.00 0.00 77 1013.1
20260505120129 15 207 4.8 8.0 0.00 0.00 0.00 77 1013.1
20260505120036 15 198 4.8 8.0 0.00 0.00 0.00 77 1013.1
20260505115923 15 171 4.8 8.0 0.00 0.00 0.00 77 1013.1
20260505115810 15 182 3.2 4.8 0.00 0.00 0.00 77 1013.1
20260505115717 15 178 3.2 4.8 0.00 0.00 0.00 77 1013.0
20260505115624 15 178 3.2 4.8 0.00 0.00 0.00 77 1013.0
20260505115535 15 154 1.6 4.8 0.00 0.00 0.00 77 1013.0
20260505115422 15 184 1.6 4.8 0.00 0.00 0.00 77 1013.0
20260505115310 15 168 1.6 8.0 0.00 0.00 0.00 77 1013.0
20260505115217 15 169 3.2 8.0 0.00 0.00 0.00 77 1012.9
20260505115125 15 170 3.2 8.0 0.00 0.00 0.00 77 1012.9
20260505115100 15 173 3.2 8.0 0.00 0.00 0.00 77 1012.8
20260505114814 15 152 1.6 8.0 0.00 0.00 0.00 77 1012.8
20260505114721 15 147 1.6 8.0 0.00 0.00 0.00 77 1012.8
20260505114648 15 170 3.2 8.0 0.00 0.00 0.00 77 1012.8
20260505114534 15 178 4.8 8.0 0.00 0.00 0.00 77 1012.7
20260505114419 15 151 4.8 8.0 0.00 0.00 0.00 77 1012.7
20260505114310 15 146 3.2 8.0 0.00 0.00 0.00 77 1012.6
20260505114217 15 156 3.2 8.0 0.00 0.00 0.00 77 1012.7
20260505114125 15 182 4.8 8.0 0.00 0.00 0.00 77 1012.7
20260505114013 15 148 4.8 8.0 0.00 0.00 0.00 77 1012.6
20260505113920 15 144 3.2 8.0 0.00 0.00 0.00 77 1012.6
20260505113827 15 149 3.2 8.0 0.00 0.00 0.00 77 1012.5
20260505113758 15 143 3.2 8.0 0.00 0.00 0.00 77 1012.5
20260505113705 15 145 3.2 8.0 0.00 0.00 0.00 77 1012.4
20260505113615 15 152 3.2 8.0 0.00 0.00 0.00 77 1012.4
20260505113325 15 150 4.8 8.0 0.00 0.00 0.00 78 1012.3
20260505113233 15 142 6.4 8.0 0.00 0.00 0.00 77 1012.3
20260505113120 15 148 4.8 6.4 0.00 0.00 0.00 78 1012.3
20260505113012 15 144 3.2 6.4 0.00 0.00 0.00 78 1012.2
20260505112920 15 132 3.2 6.4 0.00 0.00 0.00 78 1012.2
20260505112828 15 135 3.2 6.4 0.00 0.00 0.00 78 1012.2
20260505112736 15 143 4.8 8.0 0.00 0.00 0.00 77 1012.2
20260505112622 15 144 4.8 8.0 0.00 0.00 0.00 77 1012.2
20260505112511 15 142 4.8 6.4 0.00 0.00 0.00 77 1012.2
20260505112423 15 135 3.2 6.4 0.00 0.00 0.00 77 1012.2
20260505112311 15 138 3.2 6.4 0.00 0.00 0.00 77 1012.1
20260505112238 14 138 3.2 6.4 0.00 0.00 0.00 77 1012.1
20260505112146 15 138 3.2 6.4 0.00 0.00 0.00 77 1012.1
20260505112054 15 137 3.2 6.4 0.00 0.00 0.00 77 1012.1
20260505111812 14 130 3.2 4.8 0.00 0.00 0.00 77 1012.1
20260505111719 14 134 3.2 4.8 0.00 0.00 0.00 77 1012.2
20260505111626 14 128 3.2 4.8 0.00 0.00 0.00 77 1012.2
20260505111513 14 151 3.2 6.4 0.00 0.00 0.00 77 1012.2
20260505111421 14 151 3.2 6.4 0.00 0.00 0.00 77 1012.2
20260505111349 14 150 3.2 6.4 0.00 0.00 0.00 77 1012.3
20260505111239 14 144 3.2 6.4 0.00 0.00 0.00 77 1012.2
20260505111126 14 143 3.2 6.4 0.00 0.00 0.00 77 1012.2
20260505111012 14 153 3.2 6.4 0.00 0.00 0.00 77 1012.2
20260505110919 14 148 3.2 6.4 0.00 0.00 0.00 77 1012.2
20260505110826 14 145 3.2 6.4 0.00 0.00 0.00 77 1012.2
20260505110714 14 143 3.2 6.4 0.00 0.00 0.00 77 1012.1
20260505110645 14 111 3.2 6.4 0.00 0.00 0.00 77 1012.1
20260505110555 14 142 3.2 6.4 0.00 0.00 0.00 77 1012.1
20260505110348 14 146 1.6 4.8 0.00 0.00 0.00 77 1012.0
20260505110215 14 146 1.6 4.8 0.00 0.00 0.00 77 1012.0
20260505110122 14 146 1.6 4.8 0.00 0.00 0.00 77 1012.0
20260505102215 15 174 6.4 9.7 0.00 0.00 0.00 75 1011.6
20260505102121 15 173 6.4 9.7 0.00 0.00 0.00 75 1011.6
20260505102055 15 177 4.8 9.7 0.00 0.00 0.00 75 1011.8
20260505101809 15 202 4.8 9.7 0.00 0.00 0.00 74 1011.7
20260505101717 15 180 4.8 9.7 0.00 0.00 0.00 74 1011.6
20260505101643 15 186 4.8 9.7 0.00 0.00 0.00 74 1011.6
20260505101529 15 197 4.8 9.7 0.00 0.00 0.00 74 1011.5
20260505101437 15 170 6.4 9.7 0.00 0.00 0.00 74 1011.6
20260505101326 15 178 6.4 9.7 0.00 0.00 0.00 74 1011.6
20260505101215 15 216 4.8 8.0 0.00 0.00 0.00 74 1011.5
20260505101122 15 159 6.4 8.0 0.00 0.00 0.00 74 1011.5
20260505101010 15 180 6.4 8.0 0.00 0.00 0.00 74 1011.4
20260505100918 15 169 6.4 9.7 0.00 0.00 0.00 74 1011.4
20260505100824 15 182 4.8 9.7 0.00 0.00 0.00 74 1011.4
20260505100715 15 184 4.8 9.7 0.00 0.00 0.00 74 1011.4
20260505100624 15 171 3.2 9.7 0.00 0.00 0.00 74 1011.4
20260505100555 15 167 3.2 9.7 0.00 0.00 0.00 74 1011.4
20260505100328 15 210 4.8 9.7 0.00 0.00 0.00 74 1011.4
20260505100220 15 202 6.4 9.7 0.00 0.00 0.00 74 1011.5
20260505100128 15 180 6.4 9.7 0.00 0.00 0.00 74 1011.4
20260505100016 15 182 4.8 9.7 0.00 0.00 0.00 73 1011.5
20260505095924 15 171 4.8 9.7 0.00 0.00 0.00 73 1011.5
20260505095813 15 173 6.4 9.7 0.00 0.00 0.00 73 1011.6
20260505095724 15 194 4.8 9.7 0.00 0.00 0.00 73 1011.6
20260505095611 15 195 3.2 6.4 0.00 0.00 0.00 73 1011.5
20260505095518 15 189 3.2 6.4 0.00 0.00 0.00 73 1011.5
20260505095427 15 186 3.2 6.4 0.00 0.00 0.00 73 1011.5
20260505095313 15 201 3.2 6.4 0.00 0.00 0.00 73 1011.4
20260505095241 15 188 3.2 6.4 0.00 0.00 0.00 73 1011.4
20260505095131 15 198 3.2 6.4 0.00 0.00 0.00 73 1011.4
20260505095101 15 142 3.2 6.4 0.00 0.00 0.00 73 1011.4
20260505094815 15 200 1.6 6.4 0.00 0.00 0.00 73 1011.4
20260505094722 15 169 3.2 8.0 0.00 0.00 0.00 73 1011.4
20260505094631 15 184 3.2 8.0 0.00 0.00 0.00 73 1011.4
20260505094541 15 145 3.2 8.0 0.00 0.00 0.00 73 1011.4
20260505094426 15 161 1.6 8.0 0.00 0.00 0.00 73 1011.3
20260505094314 15 179 1.6 8.0 0.00 0.00 0.00 72 1011.3
20260505094222 15 173 1.6 8.0 0.00 0.00 0.00 72 1011.3
20260505094110 15 169 3.2 8.0 0.00 0.00 0.00 72 1011.3
20260505094017 15 196 4.8 8.0 0.00 0.00 0.00 72 1011.4
20260505093910 15 174 4.8 8.0 0.00 0.00 0.00 72 1011.4
20260505093817 15 200 4.8 8.0 0.00 0.00 0.00 72 1011.4
20260505093725 15 193 3.2 11.3 0.00 0.00 0.00 72 1011.4
20260505093631 15 179 3.2 12.9 0.00 0.00 0.00 72 1011.3
20260505093544 15 179 4.8 14.5 0.00 0.00 0.00 72 1011.3
20260505093318 15 193 4.8 14.5 0.00 0.00 0.00 72 1011.3
20260505093225 15 167 4.8 14.5 0.00 0.00 0.00 72 1011.3
20260505093113 15 159 6.4 14.5 0.00 0.00 0.00 72 1011.2
20260505093021 15 178 6.4 14.5 0.00 0.00 0.00 72 1011.2
20260505092950 15 140 6.4 14.5 0.00 0.00 0.00 72 1011.2
20260505092819 15 231 6.4 14.5 0.00 0.00 0.00 72 1011.1
20260505092727 15 189 8.0 14.5 0.00 0.00 0.00 71 1011.2
20260505092635 15 139 9.7 14.5 0.00 0.00 0.00 72 1011.1
20260505092542 15 150 8.0 14.5 0.00 0.00 0.00 72 1011.1
20260505092428 15 180 8.0 14.5 0.00 0.00 0.00 71 1011.1
20260505092317 15 163 6.4 16.1 0.00 0.00 0.00 71 1011.1
20260505092225 15 209 6.4 16.1 0.00 0.00 0.00 71 1011.1
20260505092157 15 165 8.0 16.1 0.00 0.00 0.00 71 1011.2
20260505092106 15 161 6.4 16.1 0.00 0.00 0.00 71 1011.2
20260505091818 15 198 6.4 16.1 0.00 0.00 0.00 71 1011.2
20260505091725 15 126 8.0 16.1 0.00 0.00 0.00 71 1011.2
20260505091612 15 165 8.0 16.1 0.00 0.00 0.00 71 1011.2
20260505091524 15 184 8.0 16.1 0.00 0.00 0.00 71 1011.2
20260505091433 15 140 6.4 14.5 0.00 0.00 0.00 71 1011.3
20260505091320 15 191 8.0 14.5 0.00 0.00 0.00 71 1011.3
20260505091228 15 178 6.4 14.5 0.00 0.00 0.00 72 1011.2
20260505091115 15 150 4.8 9.7 0.00 0.00 0.00 71 1011.4
20260505091022 15 176 4.8 9.7 0.00 0.00 0.00 71 1011.4
20260505090913 15 178 4.8 9.7 0.00 0.00 0.00 71 1011.4
20260505090821 15 162 4.8 11.3 0.00 0.00 0.00 71 1011.4
20260505090729 15 168 4.8 9.7 0.00 0.00 0.00 72 1011.4
20260505090616 15 162 4.8 9.7 0.00 0.00 0.00 72 1011.3
20260505090551 15 158 6.4 9.7 0.00 0.00 0.00 71 1011.3
20260505090325 15 153 6.4 11.3 0.00 0.00 0.00 71 1011.4
20260505090233 15 179 6.4 9.7 0.00 0.00 0.00 71 1011.4
20260505090119 15 178 4.8 9.7 0.00 0.00 0.00 71 1011.4
20260505090025 15 199 4.8 8.0 0.00 0.00 0.00 71 1011.4
20260505085913 15 192 4.8 9.7 0.00 0.00 0.00 71 1011.3
20260505085844 15 182 4.8 9.7 0.00 0.00 0.00 71 1011.3
20260505085710 15 188 4.8 9.7 0.00 0.00 0.00 71 1011.2
20260505085619 15 193 4.8 9.7 0.00 0.00 0.00 72 1011.2
20260505085526 15 164 4.8 9.7 0.00 0.00 0.00 72 1011.2
20260505085413 15 147 4.8 9.7 0.00 0.00 0.00 72 1011.3
20260505085320 15 142 4.8 9.7 0.00 0.00 0.00 72 1011.3
20260505085212 15 129 4.8 9.7 0.00 0.00 0.00 72 1011.3
20260505085119 15 173 4.8 9.7 0.00 0.00 0.00 72 1011.3
20260505085050 15 161 4.8 9.7 0.00 0.00 0.00 72 1011.3
20260505084824 15 175 4.8 9.7 0.00 0.00 0.00 72 1011.4
20260505084716 15 176 3.2 8.0 0.00 0.00 0.00 71 1011.3
20260505084624 15 183 3.2 8.0 0.00 0.00 0.00 72 1011.3
20260505084511 15 188 4.8 8.0 0.00 0.00 0.00 72 1011.4
20260505084438 15 181 4.8 8.0 0.00 0.00 0.00 72 1011.5
20260505084323 15 171 4.8 8.0 0.00 0.00 0.00 72 1011.5
20260505084211 15 156 4.8 8.0 0.00 0.00 0.00 72 1011.4
20260505084139 15 166 4.8 8.0 0.00 0.00 0.00 72 1011.4
20260505084028 15 204 4.8 8.0 0.00 0.00 0.00 72 1011.4
20260505083934 15 202 4.8 8.0 0.00 0.00 0.00 72 1011.4
20260505083821 15 190 4.8 8.0 0.00 0.00 0.00 72 1011.4
20260505083726 15 182 6.4 8.0 0.00 0.00 0.00 72 1011.4
20260505083614 15 178 4.8 8.0 0.00 0.00 0.00 72 1011.4
20260505083548 15 211 4.8 8.0 0.00 0.00 0.00 72 1011.4
20260505083341 15 177 4.8 8.0 0.00 0.00 0.00 72 1011.4
20260505083228 15 184 4.8 8.0 0.00 0.00 0.00 72 1011.4
20260505083136 15 183 4.8 8.0 0.00 0.00 0.00 72 1011.4
20260505083023 15 175 3.2 8.0 0.00 0.00 0.00 72 1011.4
20260505082910 15 207 4.8 8.0 0.00 0.00 0.00 72 1011.5
20260505082822 15 185 4.8 8.0 0.00 0.00 0.00 72 1011.5
20260505082709 15 172 6.4 8.0 0.00 0.00 0.00 72 1011.4
20260505082618 15 202 4.8 8.0 0.00 0.00 0.00 72 1011.5
20260505082526 15 196 4.8 8.0 0.00 0.00 0.00 72 1011.5
20260505082414 15 187 4.8 8.0 0.00 0.00 0.00 72 1011.3
20260505082343 15 183 3.2 9.7 0.00 0.00 0.00 72 1011.3
20260505082212 15 177 4.8 9.7 0.00 0.00 0.00 72 1011.4
20260505082140 15 180 4.8 8.0 0.00 0.00 0.00 72 1011.4
20260505082049 15 178 4.8 8.0 0.00 0.00 0.00 72 1011.4
20260505081824 15 153 3.2 6.4 0.00 0.00 0.00 72 1011.3
20260505081717 15 171 3.2 4.8 0.00 0.00 0.00 72 1011.3
20260505081624 15 171 3.2 4.8 0.00 0.00 0.00 72 1011.3
20260505081511 15 151 3.2 4.8 0.00 0.00 0.00 73 1011.4
20260505081418 15 151 3.2 4.8 0.00 0.00 0.00 73 1011.4
20260505081327 15 151 3.2 4.8 0.00 0.00 0.00 73 1011.4
20260505081215 15 151 3.2 4.8 0.00 0.00 0.00 72 1011.5
20260505081126 15 164 3.2 6.4 0.00 0.00 0.00 73 1011.5
20260505081012 15 153 3.2 4.8 0.00 0.00 0.00 73 1011.5
20260505080921 15 157 3.2 4.8 0.00 0.00 0.00 73 1011.5
20260505080848 15 157 3.2 4.8 0.00 0.00 0.00 73 1011.5
20260505080715 15 157 3.2 4.8 0.00 0.00 0.00 73 1011.6
20260505080555 15 157 3.2 4.8 0.00 0.00 0.00 73 1011.6
20260505080349 15 157 3.2 4.8 0.00 0.00 0.00 73 1011.7
20260505080215 15 157 3.2 4.8 0.00 0.00 0.00 73 1011.6
20260505080123 15 157 3.2 4.8 0.00 0.00 0.00 73 1011.6
20260505080030 15 157 3.2 4.8 0.00 0.00 0.00 73 1011.7
20260505075942 15 157 1.6 4.8 0.00 0.00 0.00 72 1011.7
20260505075829 15 157 1.6 4.8 0.00 0.00 0.00 73 1011.7
20260505075717 15 157 1.6 4.8 0.00 0.00 0.00 72 1011.7
20260505075645 15 157 3.2 4.8 0.00 0.00 0.00 72 1011.7
20260505075512 15 157 3.2 4.8 0.00 0.00 0.00 72 1011.7
20260505075419 15 157 1.6 4.8 0.00 0.00 0.00 72 1011.7
20260505075310 15 157 1.6 4.8 0.00 0.00 0.00 72 1011.7
20260505075218 15 157 1.6 4.8 0.00 0.00 0.00 72 1011.7
20260505075125 15 152 1.6 4.8 0.00 0.00 0.00 72 1011.7
20260505075056 15 152 1.6 4.8 0.00 0.00 0.00 72 1011.6
20260505074813 15 152 3.2 4.8 0.00 0.00 0.00 72 1011.8
20260505074740 15 147 3.2 4.8 0.00 0.00 0.00 71 1011.8
20260505074626 15 162 3.2 4.8 0.00 0.00 0.00 71 1011.8
20260505074513 15 166 1.6 4.8 0.00 0.00 0.00 71 1011.8
20260505074421 15 156 1.6 4.8 0.00 0.00 0.00 71 1011.8
20260505074328 15 165 1.6 6.4 0.00 0.00 0.00 71 1011.9
20260505074220 15 164 1.6 8.0 0.00 0.00 0.00 71 1011.8
20260505074147 15 173 1.6 8.0 0.00 0.00 0.00 71 1011.8
20260505074014 15 180 3.2 8.0 0.00 0.00 0.00 71 1011.9
20260505073922 15 177 1.6 9.7 0.00 0.00 0.00 71 1011.9
20260505073811 15 172 1.6 9.7 0.00 0.00 0.00 71 1012.0
20260505073739 15 182 3.2 9.7 0.00 0.00 0.00 71 1012.1
20260505073625 15 184 4.8 9.7 0.00 0.00 0.00 71 1012.1
20260505073559 15 171 4.8 11.3 0.00 0.00 0.00 71 1012.0
20260505073313 15 192 6.4 11.3 0.00 0.00 0.00 71 1012.0
20260505073222 15 193 6.4 11.3 0.00 0.00 0.00 71 1012.0
20260505073149 15 197 4.8 11.3 0.00 0.00 0.00 71 1012.1
20260505073020 15 208 4.8 11.3 0.00 0.00 0.00 71 1012.0
20260505072928 15 180 4.8 11.3 0.00 0.00 0.00 71 1012.1
20260505072835 15 187 6.4 11.3 0.00 0.00 0.00 71 1012.1
20260505072720 15 177 4.8 11.3 0.00 0.00 0.00 71 1012.1
20260505072648 15 200 3.2 6.4 0.00 0.00 0.00 71 1012.1
20260505072534 15 187 3.2 6.4 0.00 0.00 0.00 71 1012.1
20260505072420 15 194 3.2 6.4 0.00 0.00 0.00 71 1012.1
20260505072311 15 197 3.2 6.4 0.00 0.00 0.00 71 1012.1
20260505072219 15 200 3.2 6.4 0.00 0.00 0.00 71 1012.1
20260505072126 15 200 3.2 6.4 0.00 0.00 0.00 71 1012.1
20260505072056 15 200 3.2 6.4 0.00 0.00 0.00 71 1012.0
20260505071814 15 198 3.2 6.4 0.00 0.00 0.00 71 1012.1
20260505071721 15 201 3.2 6.4 0.00 0.00 0.00 71 1012.1
20260505071609 15 198 3.2 6.4 0.00 0.00 0.00 71 1012.0
20260505071517 15 197 3.2 6.4 0.00 0.00 0.00 71 1012.0
20260505071423 15 182 3.2 6.4 0.00 0.00 0.00 71 1012.0
20260505071311 15 196 3.2 6.4 0.00 0.00 0.00 71 1011.9
20260505071223 15 188 3.2 6.4 0.00 0.00 0.00 71 1011.9
20260505071110 15 178 3.2 6.4 0.00 0.00 0.00 71 1012.0
20260505071018 15 163 3.2 6.4 0.00 0.00 0.00 71 1012.0
20260505070925 15 180 3.2 4.8 0.00 0.00 0.00 71 1012.0
20260505070811 15 170 1.6 4.8 0.00 0.00 0.00 71 1011.9
20260505070724 15 178 1.6 4.8 0.00 0.00 0.00 71 1011.9
20260505070652 15 178 1.6 4.8 0.00 0.00 0.00 71 1012.0
20260505070559 15 176 1.6 3.2 0.00 0.00 0.00 71 1012.0
20260505070313 15 179 1.6 3.2 0.00 0.00 0.00 71 1012.0
20260505070222 15 179 1.6 3.2 0.00 0.00 0.00 71 1012.0
20260505070112 15 179 1.6 3.2 0.00 0.00 0.00 71 1012.0
20260505070021 15 179 1.6 3.2 0.00 0.00 0.00 71 1012.0
20260505065928 15 179 1.6 3.2 0.00 0.00 0.00 71 1012.0
20260505065815 15 179 1.6 3.2 0.00 0.00 0.00 71 1012.0
20260505065723 15 181 1.6 3.2 0.00 0.00 0.00 71 1012.0
20260505065614 15 181 1.6 3.2 0.00 0.00 0.00 71 1012.0
20260505065522 15 181 1.6 3.2 0.00 0.00 0.00 71 1012.0
20260505065428 15 181 1.6 3.2 0.00 0.00 0.00 71 1012.0
20260505065317 15 164 1.6 3.2 0.00 0.00 0.00 72 1012.0
20260505065224 15 164 1.6 3.2 0.00 0.00 0.00 72 1012.0
20260505065132 15 164 1.6 3.2 0.00 0.00 0.00 72 1012.0
20260505065107 15 164 1.6 3.2 0.00 0.00 0.00 72 1012.0
20260505064820 15 164 1.6 3.2 0.00 0.00 0.00 72 1012.0
20260505064728 15 164 1.6 3.2 0.00 0.00 0.00 71 1012.0
20260505064615 15 164 1.6 3.2 0.00 0.00 0.00 72 1012.1
20260505064541 15 164 1.6 3.2 0.00 0.00 0.00 72 1012.1
20260505064411 15 164 1.6 3.2 0.00 0.00 0.00 71 1012.0
20260505064319 15 164 1.6 3.2 0.00 0.00 0.00 71 1012.0
20260505064227 15 164 0.0 3.2 0.00 0.00 0.00 71 1012.1
20260505064115 15 164 0.0 3.2 0.00 0.00 0.00 71 1012.0
20260505064023 15 164 0.0 3.2 0.00 0.00 0.00 71 1012.0
20260505063915 15 164 0.0 3.2 0.00 0.00 0.00 71 1012.1
20260505063822 15 164 0.0 3.2 0.00 0.00 0.00 71 1012.1
20260505063728 15 164 1.6 3.2 0.00 0.00 0.00 71 1012.0
20260505063616 15 164 1.6 3.2 0.00 0.00 0.00 71 1012.0
20260505063546 15 164 1.6 3.2 0.00 0.00 0.00 71 1012.0
20260505063323 15 170 1.6 3.2 0.00 0.00 0.00 71 1012.1
20260505063210 15 170 0.0 3.2 0.00 0.00 0.00 71 1012.1
20260505063117 15 170 0.0 3.2 0.00 0.00 0.00 71 1012.1
20260505063045 15 170 1.6 3.2 0.00 0.00 0.00 71 1012.1
20260505062912 15 181 1.6 3.2 0.00 0.00 0.00 71 1012.2
20260505062840 16 196 0.0 3.2 0.00 0.00 0.00 71 1012.2
20260505062711 16 196 0.0 1.6 0.00 0.00 0.00 71 1012.1
20260505062618 16 196 0.0 1.6 0.00 0.00 0.00 71 1012.1
20260505062527 16 196 0.0 1.6 0.00 0.00 0.00 71 1012.1
20260505062413 16 196 0.0 1.6 0.00 0.00 0.00 71 1012.2
20260505062321 16 196 0.0 3.2 0.00 0.00 0.00 70 1012.2
20260505062248 16 196 0.0 3.2 0.00 0.00 0.00 70 1012.2
20260505062134 16 196 0.0 3.2 0.00 0.00 0.00 70 1012.2
20260505062047 16 196 0.0 3.2 0.00 0.00 0.00 70 1012.2
20260505061821 16 196 0.0 4.8 0.00 0.00 0.00 70 1012.2
20260505061750 16 196 0.0 4.8 0.00 0.00 0.00 70 1012.1
20260505061617 16 196 0.0 4.8 0.00 0.00 0.00 70 1012.2
20260505061509 16 196 0.0 4.8 0.00 0.00 0.00 70 1012.2
20260505061418 16 196 1.6 4.8 0.00 0.00 0.00 70 1012.3
20260505061326 16 196 1.6 4.8 0.00 0.00 0.00 69 1012.3
20260505061214 16 187 1.6 4.8 0.00 0.00 0.00 69 1012.3
20260505061122 16 187 1.6 4.8 0.00 0.00 0.00 69 1012.3
20260505061049 16 196 1.6 3.2 0.00 0.00 0.00 69 1012.2
20260505060920 16 199 1.6 3.2 0.00 0.00 0.00 69 1012.3
20260505060849 16 199 1.6 3.2 0.00 0.00 0.00 69 1012.2
20260505060715 16 199 1.6 3.2 0.00 0.00 0.00 69 1012.3
20260505060622 16 199 1.6 3.2 0.00 0.00 0.00 69 1012.3
20260505060553 16 199 1.6 3.2 0.00 0.00 0.00 69 1012.2
20260505060331 16 186 1.6 3.2 0.00 0.00 0.00 69 1012.2
20260505060218 16 190 0.0 3.2 0.00 0.00 0.00 69 1012.2
20260505060147 16 190 0.0 4.8 0.00 0.00 0.00 69 1012.2
20260505060014 16 190 0.0 4.8 0.00 0.00 0.00 69 1012.2
20260505055920 16 190 0.0 4.8 0.00 0.00 0.00 68 1012.2
20260505055828 16 190 0.0 4.8 0.00 0.00 0.00 68 1012.2
20260505055720 16 190 0.0 4.8 0.00 0.00 0.00 68 1012.2
20260505055627 16 190 1.6 4.8 0.00 0.00 0.00 68 1012.2
20260505055512 16 190 1.6 4.8 0.00 0.00 0.00 68 1012.2
20260505055420 16 190 1.6 4.8 0.00 0.00 0.00 68 1012.2
20260505055328 16 194 1.6 6.4 0.00 0.00 0.00 68 1012.2
20260505055236 16 186 1.6 6.4 0.00 0.00 0.00 68 1012.3
20260505055126 16 186 0.0 6.4 0.00 0.00 0.00 68 1012.3
20260505055056 16 186 0.0 6.4 0.00 0.00 0.00 68 1012.2
20260505054810 16 186 0.0 6.4 0.00 0.00 0.00 68 1012.3
20260505054718 16 186 1.6 6.4 0.00 0.00 0.00 68 1012.2
20260505054625 16 197 1.6 6.4 0.00 0.00 0.00 68 1012.2
20260505054518 16 197 3.2 6.4 0.00 0.00 0.00 67 1012.3
20260505054424 16 184 3.2 6.4 0.00 0.00 0.00 68 1012.3
20260505054311 16 206 3.2 6.4 0.00 0.00 0.00 68 1012.3
20260505054219 17 213 3.2 6.4 0.00 0.00 0.00 67 1012.4
20260505054126 17 199 3.2 6.4 0.00 0.00 0.00 67 1012.4
20260505054018 17 188 3.2 6.4 0.00 0.00 0.00 67 1012.3
20260505053925 17 202 3.2 6.4 0.00 0.00 0.00 67 1012.3
20260505053813 17 189 4.8 8.0 0.00 0.00 0.00 67 1012.3
20260505053721 17 196 3.2 8.0 0.00 0.00 0.00 67 1012.3
20260505053649 17 171 4.8 8.0 0.00 0.00 0.00 67 1012.3
20260505053543 17 178 4.8 8.0 0.00 0.00 0.00 67 1012.3
20260505053317 17 196 4.8 8.0 0.00 0.00 0.00 67 1012.3
20260505053225 17 178 4.8 8.0 0.00 0.00 0.00 67 1012.3
20260505053112 17 189 3.2 8.0 0.00 0.00 0.00 67 1012.3
20260505053018 17 201 3.2 8.0 0.00 0.00 0.00 67 1012.3
20260505052910 17 186 3.2 8.0 0.00 0.00 0.00 67 1012.3
20260505052819 17 155 1.6 8.0 0.00 0.00 0.00 67 1012.3
20260505052725 17 168 1.6 8.0 0.00 0.00 0.00 67 1012.3
20260505052632 17 186 3.2 8.0 0.00 0.00 0.00 67 1012.3
20260505052520 17 175 4.8 11.3 0.00 0.00 0.00 67 1012.3
20260505052449 17 201 4.8 11.3 0.00 0.00 0.00 67 1012.3
20260505052318 17 169 4.8 11.3 0.00 0.00 0.00 67 1012.3
20260505052245 17 171 4.8 11.3 0.00 0.00 0.00 67 1012.3
20260505052131 17 202 3.2 11.3 0.00 0.00 0.00 67 1012.4
20260505052102 17 178 3.2 11.3 0.00 0.00 0.00 67 1012.4
20260505051816 17 239 6.4 11.3 0.00 0.00 0.00 67 1012.4
20260505051727 17 203 8.0 11.3 0.00 0.00 0.00 66 1012.4
20260505051614 17 180 6.4 12.9 0.00 0.00 0.00 67 1012.3
20260505051543 17 167 6.4 11.3 0.00 0.00 0.00 67 1012.3
20260505051410 17 182 6.4 11.3 0.00 0.00 0.00 67 1012.3
20260505051317 17 223 6.4 11.3 0.00 0.00 0.00 67 1012.4
20260505051246 17 173 4.8 11.3 0.00 0.00 0.00 67 1012.4
20260505051116 17 174 4.8 8.0 0.00 0.00 0.00 67 1012.3
20260505051024 17 184 4.8 8.0 0.00 0.00 0.00 67 1012.3
20260505050911 17 173 3.2 9.7 0.00 0.00 0.00 67 1012.3
20260505050819 17 196 4.8 9.7 0.00 0.00 0.00 67 1012.3
20260505050726 17 199 4.8 9.7 0.00 0.00 0.00 67 1012.3
20260505050614 17 162 3.2 8.0 0.00 0.00 0.00 67 1012.4
20260505050549 17 214 3.2 6.4 0.00 0.00 0.00 67 1012.4
20260505050324 17 146 3.2 6.4 0.00 0.00 0.00 67 1012.3
20260505050231 17 166 3.2 6.4 0.00 0.00 0.00 66 1012.4
20260505050117 17 169 3.2 6.4 0.00 0.00 0.00 66 1012.3
20260505041710 18 189 6.4 11.3 0.00 0.00 0.00 63 1012.2
20260505041617 18 169 4.8 11.3 0.00 0.00 0.00 63 1012.2
20260505041524 18 172 4.8 11.3 0.00 0.00 0.00 63 1012.2
20260505041413 18 180 6.4 11.3 0.00 0.00 0.00 63 1012.2
20260505041321 18 179 6.4 11.3 0.00 0.00 0.00 63 1012.2
20260505041211 18 194 4.8 11.3 0.00 0.00 0.00 63 1012.2
20260505041119 18 206 4.8 11.3 0.00 0.00 0.00 63 1012.3
20260505041028 18 199 4.8 11.3 0.00 0.00 0.00 63 1012.3
20260505040916 18 178 4.8 11.3 0.00 0.00 0.00 63 1012.2
20260505040824 18 194 6.4 11.3 0.00 0.00 0.00 63 1012.2
20260505040712 18 188 6.4 11.3 0.00 0.00 0.00 63 1012.4
20260505040623 18 207 6.4 11.3 0.00 0.00 0.00 63 1012.4
20260505040553 18 219 6.4 9.7 0.00 0.00 0.00 63 1012.3
20260505040326 18 184 4.8 8.0 0.00 0.00 0.00 63 1012.3
20260505040213 18 208 4.8 8.0 0.00 0.00 0.00 63 1012.2
20260505040124 18 197 4.8 8.0 0.00 0.00 0.00 63 1012.2
20260505040032 18 168 4.8 8.0 0.00 0.00 0.00 62 1012.2
20260505035919 18 184 4.8 8.0 0.00 0.00 0.00 62 1012.3
20260505035845 18 191 4.8 8.0 0.00 0.00 0.00 62 1012.3
20260505035711 18 212 4.8 8.0 0.00 0.00 0.00 62 1012.2
20260505035619 18 200 4.8 9.7 0.00 0.00 0.00 62 1012.2
20260505035511 18 209 3.2 9.7 0.00 0.00 0.00 62 1012.2
20260505035418 18 176 4.8 9.7 0.00 0.00 0.00 62 1012.2
20260505035325 18 172 4.8 9.7 0.00 0.00 0.00 62 1012.2
20260505035213 18 161 4.8 9.7 0.00 0.00 0.00 62 1012.2
20260505035141 18 171 4.8 9.7 0.00 0.00 0.00 61 1012.2
20260505035054 18 200 4.8 9.7 0.00 0.00 0.00 61 1012.2
20260505034848 18 160 4.8 9.7 0.00 0.00 0.00 61 1012.2
20260505034714 18 200 4.8 9.7 0.00 0.00 0.00 61 1012.3
20260505034622 18 201 4.8 9.7 0.00 0.00 0.00 61 1012.3
20260505034550 18 205 4.8 9.7 0.00 0.00 0.00 61 1012.3
20260505034417 18 198 6.4 9.7 0.00 0.00 0.00 61 1012.3
20260505034324 18 201 6.4 9.7 0.00 0.00 0.00 61 1012.3
20260505034236 18 198 6.4 9.7 0.00 0.00 0.00 61 1012.3
20260505034142 18 184 6.4 9.7 0.00 0.00 0.00 61 1012.3